contact: severine.martini@mio.osupytheas.fr, dominique.lefevre@mio.osupytheas.fr
Project:EMSO Ligure-ouest http://www.emso-fr.org/EMSO-France
Sensor Optode, line 4330 Serial 272 
DOI : "https://doi.org/10.17882/97948" 
Title:EMSO Ligure Ouest : Data BathyDock capteur Optode - deploiement "2023-04-28"
Datetime,Profondeur,Latitude,Longitude,optode_type,serial,O2_concentration,O2_saturation,Temperature,Calibrated_Phase,Temp_Compensated_Phase,phase_blue_light,phase_red_light,Amplitude_blue_light,Amplitude_red_light,thermistor_bridge
time,m,degree_north,degree_east,1,1,umol.l-1,%,degree_C,degree,degree,degree,degree,mV,mV,mV
2023-12-09T00:00:08,2420,42.8014,5.9826,4330,272,186.554,57.129,13.304,36.037,36.617,41.206,4.589,295.6,545.1,291.4
2023-12-09T00:03:07,2420,42.8014,5.9826,4330,272,186.503,57.114,13.305,36.039,36.619,41.205,4.586,295.6,545.1,291.4
2023-12-09T00:06:07,2420,42.8014,5.9826,4330,272,186.764,57.193,13.304,36.023,36.603,41.193,4.589,295.6,545.1,291.4
2023-12-09T00:09:07,2420,42.8014,5.9826,4330,272,186.818,57.210,13.304,36.020,36.600,41.188,4.588,295.6,545.1,291.4
2023-12-09T00:12:07,2420,42.8014,5.9826,4330,272,186.559,57.134,13.307,36.035,36.615,41.202,4.587,295.6,545.1,291.3
2023-12-09T00:15:07,2420,42.8014,5.9826,4330,272,186.544,57.126,13.304,36.037,36.617,41.205,4.588,295.6,544.9,291.4
2023-12-09T00:18:07,2420,42.8014,5.9826,4330,272,186.693,57.174,13.306,36.027,36.607,41.194,4.588,295.6,545.1,291.4
2023-12-09T00:21:08,2420,42.8014,5.9826,4330,272,186.629,57.153,13.305,36.031,36.611,41.194,4.583,295.6,545.1,291.4
2023-12-09T00:24:08,2420,42.8014,5.9826,4330,272,186.487,57.113,13.308,36.039,36.619,41.202,4.584,295.6,545.0,291.3
2023-12-09T00:27:08,2420,42.8014,5.9826,4330,272,186.852,57.221,13.305,36.017,36.597,41.184,4.587,295.7,545.1,291.4
2023-12-09T00:30:08,2420,42.8014,5.9826,4330,272,186.660,57.165,13.307,36.028,36.608,41.196,4.587,295.6,545.0,291.3
2023-12-09T00:33:07,2420,42.8014,5.9826,4330,272,186.627,57.153,13.305,36.032,36.612,41.200,4.589,295.7,545.0,291.4
2023-12-09T00:36:07,2420,42.8014,5.9826,4330,272,186.585,57.143,13.308,36.033,36.613,41.195,4.582,295.6,545.0,291.3
2023-12-09T00:39:07,2420,42.8014,5.9826,4330,272,186.562,57.139,13.310,36.033,36.613,41.193,4.580,295.6,545.0,291.2
2023-12-09T00:42:07,2420,42.8014,5.9826,4330,272,186.666,57.165,13.306,36.028,36.608,41.195,4.587,295.6,545.0,291.4
2023-12-09T00:45:07,2420,42.8014,5.9826,4330,272,186.663,57.164,13.306,36.029,36.609,41.193,4.584,295.6,545.0,291.4
2023-12-09T00:48:07,2420,42.8014,5.9826,4330,272,186.552,57.131,13.306,36.036,36.616,41.203,4.587,295.5,545.1,291.4
2023-12-09T00:51:08,2420,42.8014,5.9826,4330,272,186.339,57.069,13.309,36.048,36.628,41.212,4.584,295.7,545.0,291.3
2023-12-09T00:54:08,2420,42.8014,5.9826,4330,272,186.537,57.129,13.308,36.036,36.616,41.202,4.586,295.6,545.0,291.3
2023-12-09T00:57:08,2420,42.8014,5.9826,4330,272,186.542,57.128,13.307,36.036,36.616,41.203,4.587,295.6,545.0,291.3
2023-12-09T01:00:08,2420,42.8014,5.9826,4330,272,186.506,57.118,13.307,36.038,36.618,41.201,4.583,295.7,545.0,291.3
2023-12-09T01:03:07,2420,42.8014,5.9826,4330,272,186.728,57.185,13.306,36.024,36.604,41.197,4.593,295.7,545.0,291.4
2023-12-09T01:06:07,2420,42.8014,5.9826,4330,272,186.462,57.106,13.308,36.040,36.620,41.205,4.585,295.6,545.0,291.3
2023-12-09T01:09:07,2420,42.8014,5.9826,4330,272,186.398,57.086,13.308,36.045,36.625,41.215,4.589,295.6,545.1,291.3
2023-12-09T01:12:07,2420,42.8014,5.9826,4330,272,186.525,57.124,13.308,36.037,36.617,41.203,4.586,295.7,545.0,291.3
2023-12-09T01:15:07,2420,42.8014,5.9826,4330,272,186.418,57.091,13.307,36.044,36.624,41.212,4.588,295.6,545.1,291.3
2023-12-09T01:18:07,2420,42.8014,5.9826,4330,272,186.526,57.123,13.306,36.038,36.618,41.202,4.585,295.6,545.0,291.3
2023-12-09T01:21:08,2420,42.8014,5.9826,4330,272,186.550,57.130,13.306,36.036,36.616,41.203,4.587,295.7,545.0,291.4
2023-12-09T01:24:08,2420,42.8014,5.9826,4330,272,186.560,57.133,13.306,36.035,36.615,41.203,4.588,295.6,545.1,291.4
2023-12-09T01:27:08,2420,42.8014,5.9826,4330,272,186.386,57.079,13.305,36.046,36.626,41.213,4.586,295.7,545.0,291.4
2023-12-09T01:30:07,2420,42.8014,5.9826,4330,272,186.325,57.062,13.307,36.050,36.630,41.218,4.589,295.7,545.0,291.3
2023-12-09T01:33:07,2420,42.8014,5.9826,4330,272,186.616,57.150,13.306,36.032,36.612,41.199,4.587,295.7,545.0,291.4
2023-12-09T01:36:07,2420,42.8014,5.9826,4330,272,186.474,57.111,13.309,36.039,36.619,41.204,4.585,295.6,545.1,291.3
2023-12-09T01:39:07,2420,42.8014,5.9826,4330,272,186.622,57.154,13.307,36.031,36.611,41.199,4.588,295.6,545.0,291.3
2023-12-09T01:42:07,2420,42.8014,5.9826,4330,272,186.507,57.117,13.306,36.038,36.618,41.200,4.582,295.6,545.0,291.3
2023-12-09T01:45:08,2420,42.8014,5.9826,4330,272,186.511,57.122,13.309,36.037,36.617,41.202,4.586,295.7,545.0,291.3
2023-12-09T01:48:08,2420,42.8014,5.9826,4330,272,186.374,57.080,13.309,36.046,36.626,41.212,4.586,295.7,545.0,291.3
2023-12-09T01:51:08,2420,42.8014,5.9826,4330,272,186.429,57.098,13.310,36.042,36.622,41.210,4.588,295.6,545.0,291.2
2023-12-09T01:54:07,2420,42.8014,5.9826,4330,272,186.587,57.144,13.308,36.032,36.612,41.202,4.590,295.7,545.1,291.3
2023-12-09T01:57:07,2420,42.8014,5.9826,4330,272,186.351,57.072,13.308,36.048,36.628,41.223,4.595,295.6,545.0,291.3
2023-12-09T02:00:07,2420,42.8014,5.9826,4330,272,186.424,57.096,13.310,36.042,36.622,41.207,4.584,295.7,545.1,291.2
2023-12-09T02:03:08,2420,42.8014,5.9826,4330,272,186.598,57.150,13.310,36.031,36.611,41.197,4.586,295.6,545.0,291.2
2023-12-09T02:06:07,2420,42.8014,5.9826,4330,272,186.586,57.147,13.311,36.031,36.611,41.199,4.587,295.6,545.0,291.2
2023-12-09T02:09:07,2420,42.8014,5.9826,4330,272,186.733,57.189,13.308,36.023,36.603,41.190,4.587,295.6,545.0,291.3
2023-12-09T02:12:07,2420,42.8014,5.9826,4330,272,186.472,57.110,13.309,36.040,36.620,41.207,4.588,295.7,545.0,291.3
2023-12-09T02:15:07,2420,42.8014,5.9826,4330,272,186.445,57.101,13.309,36.042,36.622,41.207,4.586,295.6,545.0,291.3
2023-12-09T02:18:08,2420,42.8014,5.9826,4330,272,186.600,57.146,13.307,36.032,36.613,41.198,4.586,295.7,545.0,291.3
2023-12-09T02:21:08,2420,42.8014,5.9826,4330,272,186.655,57.165,13.308,36.028,36.609,41.197,4.588,295.7,544.9,291.3
2023-12-09T02:24:08,2420,42.8014,5.9826,4330,272,186.532,57.130,13.310,36.035,36.615,41.199,4.583,295.7,545.0,291.2
2023-12-09T02:27:08,2420,42.8014,5.9826,4330,272,186.330,57.066,13.309,36.049,36.629,41.212,4.584,295.7,545.0,291.3
2023-12-09T02:30:08,2420,42.8014,5.9826,4330,272,186.442,57.102,13.310,36.041,36.621,41.207,4.585,295.7,545.0,291.2
2023-12-09T02:33:07,2420,42.8014,5.9826,4330,272,186.396,57.085,13.308,36.045,36.625,41.213,4.587,295.7,545.0,291.3
2023-12-09T02:36:07,2420,42.8014,5.9826,4330,272,186.590,57.151,13.312,36.030,36.610,41.201,4.591,295.7,545.0,291.1
2023-12-09T02:39:07,2420,42.8014,5.9826,4330,272,186.581,57.147,13.312,36.031,36.611,41.200,4.589,295.6,545.0,291.2
2023-12-09T02:42:08,2420,42.8014,5.9826,4330,272,186.461,57.112,13.313,36.038,36.618,41.203,4.585,295.6,545.1,291.1
2023-12-09T02:45:08,2420,42.8014,5.9826,4330,272,186.636,57.167,13.314,36.026,36.606,41.189,4.583,295.6,545.0,291.1
2023-12-09T02:48:08,2420,42.8014,5.9826,4330,272,186.324,57.068,13.312,36.047,36.627,41.217,4.590,295.7,544.9,291.2
2023-12-09T02:51:08,2420,42.8014,5.9826,4330,272,186.343,57.075,13.313,36.046,36.626,41.206,4.580,295.7,545.0,291.1
2023-12-09T02:54:08,2420,42.8014,5.9826,4330,272,186.349,57.078,13.313,36.045,36.625,41.208,4.583,295.7,545.0,291.1
2023-12-09T02:57:07,2420,42.8014,5.9826,4330,272,186.391,57.089,13.312,36.044,36.624,41.206,4.583,295.7,545.0,291.2
2023-12-09T03:00:07,2420,42.8014,5.9826,4330,272,186.527,57.131,13.312,36.034,36.615,41.199,4.585,295.6,544.9,291.2
2023-12-09T03:03:07,2420,42.8014,5.9826,4330,272,186.475,57.116,13.313,36.038,36.618,41.204,4.586,295.6,544.9,291.1
2023-12-09T03:06:08,2420,42.8014,5.9826,4330,272,186.491,57.122,13.314,36.036,36.616,41.204,4.588,295.7,544.9,291.1
2023-12-09T03:09:08,2420,42.8014,5.9826,4330,272,186.359,57.083,13.315,36.044,36.624,41.212,4.588,295.6,544.9,291.1
2023-12-09T03:12:08,2420,42.8014,5.9826,4330,272,186.298,57.064,13.314,36.049,36.629,41.214,4.585,295.6,544.9,291.1
2023-12-09T03:15:07,2420,42.8014,5.9826,4330,272,186.404,57.100,13.318,36.039,36.619,41.208,4.589,295.6,545.0,291.0
2023-12-09T03:18:07,2420,42.8014,5.9826,4330,272,186.474,57.128,13.323,36.032,36.612,41.198,4.585,295.6,545.0,290.8
2023-12-09T03:21:07,2420,42.8014,5.9826,4330,272,186.430,57.112,13.321,36.036,36.616,41.206,4.590,295.6,545.0,290.9
2023-12-09T03:24:07,2420,42.8014,5.9826,4330,272,186.390,57.101,13.321,36.038,36.618,41.203,4.585,295.6,545.0,290.9
2023-12-09T03:27:07,2420,42.8014,5.9826,4330,272,186.508,57.134,13.319,36.032,36.612,41.202,4.589,295.7,545.0,290.9
2023-12-09T03:30:08,2420,42.8014,5.9826,4330,272,186.519,57.134,13.316,36.033,36.613,41.205,4.592,295.7,545.0,291.0
2023-12-09T03:33:07,2420,42.8014,5.9826,4330,272,186.503,57.132,13.319,36.033,36.613,41.203,4.590,295.7,545.0,290.9
2023-12-09T03:36:07,2420,42.8014,5.9826,4330,272,186.514,57.134,13.318,36.033,36.613,41.199,4.586,295.7,545.0,291.0
2023-12-09T03:39:07,2420,42.8014,5.9826,4330,272,186.374,57.087,13.314,36.044,36.624,41.207,4.584,295.7,545.0,291.1
2023-12-09T03:42:07,2420,42.8014,5.9826,4330,272,186.403,57.099,13.317,36.041,36.621,41.205,4.584,295.6,545.0,291.0
2023-12-09T03:45:07,2420,42.8014,5.9826,4330,272,186.358,57.081,13.314,36.045,36.625,41.218,4.593,295.6,544.9,291.1
2023-12-09T03:48:07,2420,42.8014,5.9826,4330,272,186.267,57.065,13.323,36.046,36.626,41.210,4.584,295.7,544.9,290.8
2023-12-09T03:51:07,2420,42.8014,5.9826,4330,272,186.417,57.125,13.334,36.030,36.610,41.203,4.593,295.6,544.9,290.4
2023-12-09T03:54:07,2420,42.8014,5.9826,4330,272,186.226,57.068,13.335,36.042,36.622,41.211,4.588,295.7,544.9,290.4
2023-12-09T03:57:07,2420,42.8014,5.9826,4330,272,186.030,57.013,13.339,36.054,36.634,41.220,4.586,295.8,544.9,290.3
2023-12-09T04:00:08,2420,42.8014,5.9826,4330,272,186.371,57.096,13.323,36.039,36.619,41.212,4.593,295.7,545.0,290.8
2023-12-09T04:03:07,2420,42.8014,5.9826,4330,272,186.346,57.096,13.329,36.038,36.618,41.210,4.592,295.8,544.9,290.6
2023-12-09T04:06:07,2420,42.8014,5.9826,4330,272,186.286,57.073,13.325,36.044,36.624,41.216,4.592,295.7,544.9,290.7
2023-12-09T04:09:07,2420,42.8014,5.9826,4330,272,186.206,57.048,13.325,36.049,36.629,41.213,4.584,295.8,544.9,290.7
2023-12-09T04:12:07,2420,42.8014,5.9826,4330,272,186.095,57.015,13.326,36.056,36.636,41.216,4.580,295.8,545.0,290.7
2023-12-09T04:15:07,2420,42.8014,5.9826,4330,272,186.211,57.049,13.324,36.050,36.630,41.212,4.582,295.8,544.9,290.8
2023-12-09T04:18:07,2420,42.8014,5.9826,4330,272,186.212,57.047,13.322,36.050,36.630,41.216,4.586,295.8,544.9,290.8
2023-12-09T04:21:08,2420,42.8014,5.9826,4330,272,186.052,56.996,13.321,36.061,36.641,41.230,4.590,295.8,544.9,290.9
2023-12-09T04:24:08,2420,42.8014,5.9826,4330,272,186.124,57.018,13.321,36.057,36.637,41.224,4.587,295.7,544.9,290.9
2023-12-09T04:27:08,2420,42.8014,5.9826,4330,272,186.336,57.081,13.319,36.044,36.624,41.212,4.588,295.7,545.0,290.9
2023-12-09T04:30:08,2420,42.8014,5.9826,4330,272,186.249,57.055,13.320,36.049,36.629,41.214,4.585,295.7,544.9,290.9
2023-12-09T04:33:07,2420,42.8014,5.9826,4330,272,186.402,57.101,13.319,36.040,36.620,41.210,4.590,295.8,544.9,290.9
2023-12-09T04:36:07,2420,42.8014,5.9826,4330,272,186.308,57.075,13.321,36.044,36.624,41.216,4.592,295.7,544.9,290.9
2023-12-09T04:39:07,2420,42.8014,5.9826,4330,272,186.326,57.075,13.317,36.046,36.626,41.212,4.587,295.8,544.9,291.0
2023-12-09T04:42:07,2420,42.8014,5.9826,4330,272,186.104,57.010,13.319,36.058,36.638,41.229,4.591,295.7,544.8,290.9
2023-12-09T04:45:07,2420,42.8014,5.9826,4330,272,186.458,57.117,13.318,36.036,36.616,41.204,4.588,295.8,545.0,291.0
2023-12-09T04:48:08,2420,42.8014,5.9826,4330,272,186.166,57.028,13.318,36.055,36.635,41.222,4.587,295.7,545.0,291.0
2023-12-09T04:51:08,2420,42.8014,5.9826,4330,272,186.246,57.054,13.320,36.049,36.629,41.215,4.585,295.8,544.9,290.9
2023-12-09T04:54:08,2420,42.8014,5.9826,4330,272,186.448,57.109,13.314,36.039,36.619,41.206,4.588,295.8,545.1,291.1
2023-12-09T04:57:08,2420,42.8014,5.9826,4330,272,186.146,57.018,13.315,36.058,36.637,41.221,4.584,295.8,545.0,291.1
2023-12-09T05:00:07,2420,42.8014,5.9826,4330,272,186.373,57.085,13.313,36.044,36.624,41.214,4.589,295.8,545.0,291.1
2023-12-09T05:03:07,2420,42.8014,5.9826,4330,272,186.180,57.027,13.314,36.056,36.636,41.221,4.585,295.7,545.0,291.1
2023-12-09T05:06:07,2420,42.8014,5.9826,4330,272,186.169,57.023,13.313,36.057,36.637,41.220,4.583,295.8,545.0,291.1
2023-12-09T05:09:07,2420,42.8014,5.9826,4330,272,186.345,57.078,13.314,36.045,36.625,41.210,4.585,295.7,545.0,291.1
2023-12-09T05:12:08,2420,42.8014,5.9826,4330,272,186.377,57.086,13.313,36.044,36.624,41.211,4.587,295.8,545.0,291.1
2023-12-09T05:15:08,2420,42.8014,5.9826,4330,272,186.323,57.068,13.312,36.048,36.628,41.216,4.588,295.9,545.0,291.2
2023-12-09T05:18:08,2420,42.8014,5.9826,4330,272,186.376,57.088,13.315,36.043,36.623,41.213,4.590,295.8,545.0,291.1
2023-12-09T05:21:08,2420,42.8014,5.9826,4330,272,186.252,57.045,13.311,36.053,36.633,41.221,4.588,295.6,545.0,291.2
2023-12-09T05:24:08,2420,42.8014,5.9826,4330,272,186.532,57.129,13.310,36.035,36.615,41.201,4.586,295.7,545.0,291.2
2023-12-09T05:27:08,2420,42.8014,5.9826,4330,272,186.356,57.077,13.311,36.046,36.626,41.216,4.590,295.7,545.0,291.2
2023-12-09T05:30:08,2420,42.8014,5.9826,4330,272,186.465,57.111,13.311,36.039,36.619,41.209,4.591,295.7,545.0,291.2
2023-12-09T05:33:07,2420,42.8014,5.9826,4330,272,186.320,57.063,13.309,36.049,36.629,41.218,4.588,295.6,545.0,291.3
2023-12-09T05:36:07,2420,42.8014,5.9826,4330,272,186.771,57.201,13.309,36.021,36.601,41.188,4.587,295.7,545.1,291.3
2023-12-09T05:39:07,2420,42.8014,5.9826,4330,272,186.539,57.132,13.310,36.035,36.615,41.199,4.584,295.7,545.1,291.2
2023-12-09T05:42:07,2420,42.8014,5.9826,4330,272,186.558,57.136,13.309,36.034,36.614,41.202,4.588,295.7,545.1,291.3
2023-12-09T05:45:07,2420,42.8014,5.9826,4330,272,186.432,57.098,13.309,36.042,36.622,41.209,4.586,295.7,545.0,291.3
2023-12-09T05:48:07,2420,42.8014,5.9826,4330,272,186.434,57.099,13.310,36.042,36.622,41.208,4.586,295.7,545.0,291.2
2023-12-09T05:51:08,2420,42.8014,5.9826,4330,272,186.538,57.129,13.308,36.036,36.616,41.209,4.593,295.7,545.1,291.3
2023-12-09T05:54:08,2420,42.8014,5.9826,4330,272,186.302,57.060,13.310,36.050,36.630,41.216,4.586,295.8,545.0,291.2
2023-12-09T05:57:08,2420,42.8014,5.9826,4330,272,186.279,57.050,13.308,36.053,36.633,41.226,4.593,295.7,545.0,291.3
2023-12-09T06:00:08,2420,42.8014,5.9826,4330,272,186.439,57.100,13.309,36.041,36.621,41.208,4.587,295.7,545.1,291.3
2023-12-09T06:03:07,2420,42.8014,5.9826,4330,272,186.414,57.091,13.308,36.044,36.624,41.208,4.585,295.7,545.1,291.3
2023-12-09T06:06:07,2420,42.8014,5.9826,4330,272,186.531,57.127,13.309,36.036,36.616,41.208,4.592,295.7,545.1,291.3
2023-12-09T06:09:07,2420,42.8014,5.9826,4330,272,186.211,57.029,13.308,36.057,36.637,41.224,4.587,295.7,545.1,291.3
2023-12-09T06:12:07,2420,42.8014,5.9826,4330,272,186.661,57.167,13.309,36.027,36.608,41.194,4.587,295.7,545.1,291.3
2023-12-09T06:15:07,2420,42.8014,5.9826,4330,272,186.180,57.024,13.312,36.058,36.637,41.220,4.582,295.8,545.0,291.2
2023-12-09T06:18:08,2420,42.8014,5.9826,4330,272,186.266,57.047,13.309,36.053,36.633,41.217,4.584,295.7,545.0,291.3
2023-12-09T06:21:08,2420,42.8014,5.9826,4330,272,186.824,57.215,13.307,36.018,36.598,41.187,4.589,295.8,545.1,291.3
2023-12-09T06:24:08,2420,42.8014,5.9826,4330,272,186.659,57.165,13.308,36.028,36.608,41.198,4.590,295.7,545.0,291.3
2023-12-09T06:27:08,2420,42.8014,5.9826,4330,272,186.645,57.160,13.307,36.029,36.609,41.201,4.592,295.7,545.1,291.3
2023-12-09T06:30:08,2420,42.8014,5.9826,4330,272,186.702,57.178,13.307,36.025,36.605,41.198,4.592,295.6,545.1,291.3
2023-12-09T06:33:07,2420,42.8014,5.9826,4330,272,186.482,57.110,13.307,36.040,36.620,41.209,4.589,295.7,545.1,291.3
2023-12-09T06:36:07,2420,42.8014,5.9826,4330,272,186.555,57.135,13.309,36.034,36.614,41.200,4.586,295.7,545.1,291.3
2023-12-09T06:39:07,2420,42.8014,5.9826,4330,272,186.410,57.090,13.308,36.044,36.624,41.206,4.582,295.6,545.0,291.3
2023-12-09T06:42:07,2420,42.8014,5.9826,4330,272,186.476,57.109,13.308,36.040,36.620,41.207,4.587,295.7,545.1,291.3
2023-12-09T06:45:08,2420,42.8014,5.9826,4330,272,186.360,57.073,13.307,36.047,36.627,41.215,4.588,295.6,545.0,291.3
2023-12-09T06:48:08,2420,42.8014,5.9826,4330,272,186.425,57.097,13.310,36.042,36.622,41.211,4.588,295.7,545.1,291.2
2023-12-09T06:51:08,2420,42.8014,5.9826,4330,272,186.628,57.156,13.307,36.030,36.611,41.199,4.588,295.7,545.0,291.3
2023-12-09T06:54:08,2420,42.8014,5.9826,4330,272,186.502,57.116,13.306,36.039,36.619,41.206,4.587,295.7,545.1,291.3
2023-12-09T06:57:07,2420,42.8014,5.9826,4330,272,186.665,57.166,13.306,36.028,36.609,41.192,4.584,295.7,545.1,291.3
2023-12-09T07:00:07,2420,42.8014,5.9826,4330,272,186.489,57.113,13.307,36.039,36.619,41.207,4.589,295.7,545.1,291.3
2023-12-09T07:03:08,2420,42.8014,5.9826,4330,272,186.406,57.086,13.306,36.045,36.625,41.216,4.590,295.7,545.0,291.3
2023-12-09T07:06:07,2420,42.8014,5.9826,4330,272,186.753,57.193,13.306,36.023,36.603,41.190,4.587,295.7,545.1,291.3
2023-12-09T07:09:07,2420,42.8014,5.9826,4330,272,186.577,57.141,13.308,36.033,36.614,41.203,4.589,295.7,545.1,291.3
2023-12-09T07:12:07,2420,42.8014,5.9826,4330,272,186.550,57.134,13.309,36.034,36.615,41.205,4.591,295.7,545.1,291.3
2023-12-09T07:15:07,2420,42.8014,5.9826,4330,272,186.524,57.123,13.307,36.037,36.617,41.201,4.584,295.7,545.1,291.3
2023-12-09T07:18:08,2420,42.8014,5.9826,4330,272,186.435,57.097,13.308,36.042,36.622,41.206,4.583,295.7,545.1,291.3
2023-12-09T07:21:08,2420,42.8014,5.9826,4330,272,186.480,57.108,13.305,36.041,36.621,41.206,4.585,295.7,545.0,291.4
2023-12-09T07:24:08,2420,42.8014,5.9826,4330,272,186.607,57.152,13.309,36.031,36.611,41.198,4.587,295.6,545.1,291.3
2023-12-09T07:27:08,2420,42.8014,5.9826,4330,272,186.423,57.092,13.307,36.044,36.624,41.206,4.582,295.7,545.1,291.3
2023-12-09T07:30:07,2420,42.8014,5.9826,4330,272,186.563,57.134,13.306,36.036,36.616,41.205,4.590,295.7,545.0,291.4
2023-12-09T07:33:07,2420,42.8014,5.9826,4330,272,186.311,57.059,13.307,36.051,36.630,41.215,4.584,295.7,545.1,291.3
2023-12-09T07:36:08,2420,42.8014,5.9826,4330,272,186.704,57.177,13.305,36.026,36.606,41.199,4.593,295.7,545.1,291.4
2023-12-09T07:39:08,2420,42.8014,5.9826,4330,272,186.472,57.106,13.306,36.041,36.621,41.206,4.584,295.7,545.1,291.4
2023-12-09T07:42:07,2420,42.8014,5.9826,4330,272,186.614,57.149,13.306,36.032,36.612,41.202,4.590,295.6,545.0,291.4
2023-12-09T07:45:07,2420,42.8014,5.9826,4330,272,186.723,57.182,13.305,36.025,36.605,41.190,4.585,295.6,545.1,291.4
2023-12-09T07:48:07,2420,42.8014,5.9826,4330,272,186.692,57.175,13.307,36.027,36.607,41.197,4.590,295.7,545.1,291.3
2023-12-09T07:51:07,2420,42.8014,5.9826,4330,272,186.369,57.072,13.304,36.049,36.629,41.214,4.585,295.6,545.0,291.4
2023-12-09T07:54:07,2420,42.8014,5.9826,4330,272,186.594,57.142,13.305,36.033,36.614,41.206,4.592,295.7,545.1,291.4
2023-12-09T07:57:07,2420,42.8014,5.9826,4330,272,186.846,57.218,13.304,36.018,36.598,41.187,4.589,295.6,545.1,291.4
2023-12-09T08:00:08,2420,42.8014,5.9826,4330,272,186.571,57.134,13.304,36.035,36.615,41.204,4.589,295.7,545.1,291.4
2023-12-09T08:03:07,2420,42.8014,5.9826,4330,272,186.289,57.047,13.303,36.054,36.634,41.223,4.589,295.7,545.0,291.4
2023-12-09T08:06:07,2420,42.8014,5.9826,4330,272,186.885,57.231,13.305,36.014,36.595,41.185,4.591,295.6,545.1,291.4
2023-12-09T08:09:07,2420,42.8014,5.9826,4330,272,186.511,57.114,13.303,36.040,36.620,41.206,4.586,295.6,545.1,291.5
2023-12-09T08:12:08,2420,42.8014,5.9826,4330,272,186.463,57.104,13.306,36.042,36.622,41.215,4.593,295.6,545.1,291.3
2023-12-09T08:15:08,2420,42.8014,5.9826,4330,272,186.725,57.181,13.304,36.025,36.605,41.189,4.584,295.6,545.1,291.4
2023-12-09T08:18:08,2420,42.8014,5.9826,4330,272,186.660,57.163,13.306,36.028,36.609,41.203,4.594,295.7,545.1,291.4
2023-12-09T08:21:08,2420,42.8014,5.9826,4330,272,186.423,57.095,13.309,36.042,36.622,41.207,4.585,295.7,545.1,291.2
2023-12-09T08:24:08,2420,42.8014,5.9826,4330,272,186.505,57.120,13.309,36.038,36.618,41.210,4.592,295.6,545.1,291.3
2023-12-09T08:27:07,2420,42.8014,5.9826,4330,272,186.627,57.150,13.303,36.032,36.612,41.204,4.591,295.6,545.2,291.5
2023-12-09T08:30:07,2420,42.8014,5.9826,4330,272,186.639,57.154,13.303,36.031,36.611,41.193,4.582,295.7,545.1,291.4
2023-12-09T08:33:08,2420,42.8014,5.9826,4330,272,186.605,57.144,13.304,36.033,36.613,41.203,4.589,295.7,545.0,291.4
2023-12-09T08:36:07,2420,42.8014,5.9826,4330,272,186.596,57.140,13.303,36.035,36.615,41.200,4.585,295.6,545.1,291.5
2023-12-09T08:39:07,2420,42.8014,5.9826,4330,272,186.680,57.166,13.303,36.029,36.609,41.197,4.588,295.7,545.1,291.5
2023-12-09T08:42:07,2420,42.8014,5.9826,4330,272,186.661,57.164,13.306,36.029,36.609,41.195,4.586,295.6,545.1,291.4
2023-12-09T08:45:07,2420,42.8014,5.9826,4330,272,186.546,57.128,13.305,36.037,36.617,41.201,4.584,295.6,545.0,291.4
2023-12-09T08:48:08,2420,42.8014,5.9826,4330,272,186.640,57.155,13.304,36.031,36.611,41.198,4.587,295.6,545.1,291.4
2023-12-09T08:51:08,2420,42.8014,5.9826,4330,272,186.733,57.181,13.302,36.026,36.606,41.191,4.586,295.6,545.1,291.5
2023-12-09T08:54:08,2420,42.8014,5.9826,4330,272,186.417,57.086,13.304,36.046,36.626,41.217,4.591,295.7,545.1,291.4
2023-12-09T08:57:08,2420,42.8014,5.9826,4330,272,186.536,57.123,13.304,36.038,36.618,41.202,4.583,295.7,545.1,291.4
2023-12-09T09:00:07,2420,42.8014,5.9826,4330,272,186.615,57.147,13.303,36.033,36.613,41.200,4.587,295.6,545.1,291.4
2023-12-09T09:03:07,2420,42.8014,5.9826,4330,272,186.373,57.073,13.304,36.049,36.629,41.214,4.585,295.7,545.1,291.4
2023-12-09T09:06:07,2420,42.8014,5.9826,4330,272,186.420,57.088,13.305,36.045,36.625,41.208,4.583,295.6,545.1,291.4
2023-12-09T09:09:07,2420,42.8014,5.9826,4330,272,186.506,57.112,13.302,36.041,36.621,41.205,4.584,295.7,545.1,291.5
2023-12-09T09:12:08,2420,42.8014,5.9826,4330,272,186.589,57.141,13.305,36.033,36.613,41.199,4.586,295.6,545.0,291.4
2023-12-09T09:15:08,2420,42.8014,5.9826,4330,272,186.387,57.078,13.305,36.047,36.627,41.211,4.585,295.7,545.1,291.4
2023-12-09T09:18:07,2420,42.8014,5.9826,4330,272,186.372,57.074,13.305,36.048,36.628,41.214,4.586,295.6,545.0,291.4
2023-12-09T09:21:07,2420,42.8014,5.9826,4330,272,186.494,57.112,13.305,36.040,36.620,41.210,4.590,295.7,545.1,291.4
2023-12-09T09:24:07,2420,42.8014,5.9826,4330,272,186.457,57.102,13.306,36.042,36.622,41.206,4.584,295.7,545.1,291.4
2023-12-09T09:27:07,2420,42.8014,5.9826,4330,272,186.682,57.168,13.304,36.028,36.608,41.193,4.584,295.7,545.1,291.4
2023-12-09T09:30:07,2420,42.8014,5.9826,4330,272,186.303,57.053,13.305,36.052,36.632,41.221,4.589,295.7,545.0,291.4
2023-12-09T09:33:07,2420,42.8014,5.9826,4330,272,186.339,57.065,13.306,36.049,36.629,41.217,4.587,295.6,545.1,291.4
2023-12-09T09:36:07,2420,42.8014,5.9826,4330,272,186.653,57.158,13.304,36.030,36.610,41.200,4.590,295.7,545.1,291.4
2023-12-09T09:39:07,2420,42.8014,5.9826,4330,272,186.379,57.077,13.305,36.048,36.628,41.210,4.583,295.7,545.1,291.4
2023-12-09T09:42:07,2420,42.8014,5.9826,4330,272,186.549,57.128,13.304,36.036,36.616,41.204,4.588,295.7,545.1,291.4
2023-12-09T09:45:07,2420,42.8014,5.9826,4330,272,186.460,57.098,13.303,36.044,36.624,41.208,4.584,295.8,545.1,291.5
2023-12-09T09:48:08,2420,42.8014,5.9826,4330,272,186.421,57.088,13.304,36.046,36.626,41.214,4.589,295.8,545.1,291.4
2023-12-09T09:51:08,2420,42.8014,5.9826,4330,272,186.390,57.078,13.303,36.047,36.627,41.215,4.587,295.7,545.1,291.4
2023-12-09T09:54:08,2420,42.8014,5.9826,4330,272,186.396,57.080,13.303,36.047,36.627,41.216,4.589,295.8,545.1,291.4
2023-12-09T09:57:08,2420,42.8014,5.9826,4330,272,186.190,57.017,13.304,36.060,36.640,41.228,4.588,295.7,545.1,291.4
2023-12-09T10:00:08,2420,42.8014,5.9826,4330,272,186.533,57.122,13.304,36.038,36.618,41.202,4.584,295.7,545.0,291.4